Vorticity
9 9 9 9 9 9 8 8 9 9 9 9 9 9 9 9 9 9 9 9 9 9 8 8 7 7 7 8 7 7 6 6 7 8 9 10 13 15 17 17 19 21 23 23 20 17 15 14 13 12 11 10 10 10 9 8 8 9 9 7 4 8 13 16 15 14 14 14 12
7 7 7 7 7 7 7 7 7 8 8 8 8 7 7 7 7 6 6 7 7 6 6 5 5 5 5 5 5 5 5 5 4 4 5 6 8 10 11 13 16 18 20 20 19 17 16 15 14 12 11 9 9 9 9 10 9 9 10 11 11 8 6 8 15 18 19 19 17
7 6 7 7 6 6 6 6 6 6 6 6 6 6 5 5 5 4 4 4 4 5 5 4 4 4 4 4 3 3 3 3 3 3 3 4 5 6 7 8 10 13 15 16 17 17 16 16 15 13 11 9 8 9 9 10 12 19 25 24 15 5 -0 4 15 21 23 21 21
7 7 7 7 6 6 6 5 5 5 5 4 4 5 5 4 4 4 4 4 4 5 5 5 4 4 4 3 3 2 1 1 3 4 5 6 6 5 5 5 6 8 10 13 15 16 17 17 16 15 13 11 11 10 9 7 21 32 37 28 21 16 13 13 15 17 19 21 22
7 7 7 6 6 6 6 5 5 5 5 4 4 4 5 5 5 4 4 4 5 5 4 4 4 4 4 3 2 1 -0 0 3 5 7 7 7 6 6 6 6 6 8 10 11 13 15 17 17 16 15 14 13 10 8 11 29 29 21 16 21 24 22 16 10 10 14 20 22
5 5 6 6 5 5 5 5 5 5 5 5 5 5 5 5 5 5 5 5 3 3 3 4 4 4 3 3 2 1 -0 0 3 5 6 6 6 7 8 7 7 6 7 8 8 9 10 12 14 15 14 14 12 8 1 -8 -2 4 10 17 24 22 14 2 -2 -3 1 9 20
5 5 5 5 5 5 5 5 5 5 5 5 5 5 5 5 5 5 5 4 3 3 4 4 5 4 3 3 3 3 3 3 4 5 5 5 6 8 9 9 8 7 7 7 7 8 9 10 11 13 13 13 12 9 1 -13 -21 -10 9 25 24 17 7 0 -3 -8 -10 -7 11
5 5 5 5 5 5 5 5 5 5 5 5 6 6 6 5 6 5 5 5 5 5 4 3 3 2 2 2 3 4 5 6 7 6 6 6 7 8 9 10 10 9 9 8 7 7 7 8 9 10 12 13 13 12 10 6 0 -6 -10 -10 -7 -2 6 13 11 3 -7 -17 -14
6 6 6 6 6 6 6 6 6 6 6 6 6 6 6 6 6 6 6 6 5 5 4 4 3 2 2 2 4 6 7 7 7 7 8 8 9 9 10 11 12 11 11 10 9 8 7 7 7 8 9 12 14 15 15 15 13 6 -3 -17 -19 -10 5 22 24 18 8 -4 -11
5 5 6 6 6 6 6 6 7 7 7 6 6 6 6 6 7 7 7 6 6 6 6 6 4 4 4 5 6 6 7 8 8 9 9 10 10 11 11 12 12 13 13 13 11 10 8 7 6 6 7 8 11 14 16 17 16 14 12 10 8 7 9 17 26 25 17 8 3
6 6 6 6 6 6 7 7 7 7 7 7 7 7 7 7 8 8 8 8 9 9 9 8 7 7 7 7 8 8 9 9 10 10 10 10 11 11 12 12 13 13 14 15 13 11 9 8 7 7 7 7 8 11 14 17 17 17 17 16 15 11 7 5 12 15 13 8 11
8 8 8 8 8 8 8 8 8 9 9 9 9 9 10 10 10 10 10 11 11 11 11 11 11 11 10 10 10 10 10 11 11 12 11 11 11 11 11 11 11 12 13 14 13 12 10 8 7 7 7 6 7 9 11 13 15 16 17 18 19 18 15 10 6 2 -1 -2 10
11 11 11 11 11 12 12 12 13 13 13 14 14 14 14 14 14 14 14 14 15 15 15 15 14 14 13 13 13 13 12 12 12 11 11 11 10 10 10 10 10 10 11 12 12 13 12 10 9 8 7 6 7 8 10 12 14 15 17 18 20 22 25 27 23 12 0 -4 5
16 16 16 16 16 16 16 17 17 16 16 16 16 16 16 16 16 16 16 16 17 17 17 16 16 16 15 15 15 15 15 14 13 11 10 10 10 11 12 12 11 11 11 12 14 14 14 13 12 11 9 7 6 6 8 11 13 15 16 17 18 19 21 23 18 12 9 9 6
18 18 19 18 18 17 17 16 16 15 15 14 14 14 14 14 15 15 15 15 15 16 16 16 16 16 16 17 17 17 17 16 15 13 11 11 11 12 13 13 13 12 12 13 14 14 12 10 10 10 10 8 5 4 5 8 13 15 15 15 15 13 12 11 10 11 15 21 20
16 16 16 15 15 14 13 13 12 12 12 12 12 12 12 12 13 13 14 14 13 14 14 15 15 15 16 17 17 17 17 16 15 14 13 12 11 12 13 13 12 11 11 11 13 13 11 6 5 6 8 9 7 5 4 7 12 13 13 11 11 10 8 4 3 5 11 21 28
13 13 12 12 11 11 11 10 10 11 11 10 11 11 12 11 12 12 12 12 12 13 13 14 14 15 15 16 16 17 17 17 17 16 15 13 11 9 9 8 8 8 9 12 18 20 18 9 5 5 7 9 8 6 5 7 11 13 12 11 10 9 9 9 7 6 7 11 16
11 11 10 10 10 10 10 9 10 10 10 10 10 10 10 10 11 11 12 13 13 13 13 14 14 15 15 15 16 17 18 18 19 19 18 17 13 10 7 4 4 5 7 11 21 24 21 11 8 7 8 9 7 5 5 6 11 14 15 13 9 8 10 16 15 10 3 -4 -7
10 9 9 9 9 9 9 9 9 9 9 9 9 9 10 10 11 12 13 14 14 14 14 13 14 14 14 14 15 16 18 19 20 21 21 20 18 15 12 9 7 5 5 8 19 22 19 10 9 9 10 9 7 5 5 7 12 15 15 13 10 12 16 20 15 7 -2 -10 -16
8 8 8 8 8 8 8 8 8 9 9 9 10 10 11 12 13 14 14 15 15 15 14 14 14 13 13 14 14 15 16 17 18 18 19 19 19 19 17 15 12 9 8 10 18 22 20 11 10 10 11 9 7 7 8 11 14 16 17 16 13 11 10 10 7 4 2 0 -1
7 7 7 8 8 9 9 9 9 10 10 11 11 12 13 14 14 15 15 15 15 15 15 15 14 14 13 13 14 14 14 14 14 15 17 20 23 24 24 21 18 15 13 13 17 20 19 12 8 8 8 8 8 9 11 13 17 20 21 17 8 2 -2 -2 -1 4 10 15 13
8 8 9 9 9 10 10 10 10 11 11 11 12 12 13 14 14 15 15 15 16 16 16 16 15 15 15 14 14 13 12 11 12 13 16 22 30 35 37 35 29 23 18 16 17 18 16 8 1 0 3 6 9 11 15 19 22 22 18 9 2 -0 0 2 2 5 9 15 18
9 10 10 10 10 10 10 11 11 10 10 11 11 12 12 13 14 14 15 15 16 16 16 16 16 16 16 16 15 13 11 10 9 10 13 18 27 36 43 46 42 37 32 29 27 23 15 3 -4 -3 1 6 10 15 20 27 24 17 10 4 3 4 6 6 5 3 3 5 12
10 11 11 10 10 10 10 10 10 10 9 9 10 11 12 13 13 14 14 15 15 16 16 16 16 16 16 15 14 13 11 8 6 5 6 9 16 25 33 40 43 46 48 50 48 40 27 12 6 5 7 9 13 18 22 23 16 10 6 5 7 9 8 6 5 4 4 4 5
11 11 10 10 10 10 10 10 10 9 9 9 10 10 11 11 12 12 13 14 15 15 16 17 17 17 16 15 13 12 10 7 5 3 2 4 9 14 19 24 28 32 37 40 39 33 24 15 11 11 14 18 21 22 19 14 9 6 5 6 7 7 7 6 6 7 7 6 4
12 11 11 11 11 11 11 10 10 10 10 10 10 10 9 9 10 10 10 11 13 14 16 17 17 17 17 16 15 13 11 10 9 7 7 7 9 11 12 13 13 13 13 14 13 12 10 8 9 11 17 25 28 25 18 12 8 6 5 5 6 7 8 8 8 8 8 9 8
15 14 13 12 12 12 11 11 11 11 11 10 9 9 8 8 7 7 7 8 10 12 14 15 16 17 17 17 16 15 15 14 14 13 13 14 14 14 14 12 10 8 6 5 5 5 5 6 7 9 12 15 16 14 10 6 5 5 5 7 8 9 10 10 9 10 11 13 13
17 16 15 14 14 13 12 12 12 11 10 9 9 8 7 7 6 6 6 6 8 9 10 12 14 15 16 16 16 16 15 15 15 14 14 14 14 15 15 14 12 10 8 6 6 6 9 12 15 13 9 4 2 2 2 2 3 5 8 11 13 14 13 12 12 12 12 13 14
18 17 16 15 14 13 13 12 11 11 10 9 8 7 6 6 5 5 5 6 6 6 7 9 11 12 13 14 14 14 13 13 12 12 12 12 12 13 14 14 13 12 10 9 8 8 9 11 12 10 7 3 2 2 3 5 6 7 9 12 14 14 13 12 13 13 15 15 16
16 16 15 15 14 13 12 12 11 11 10 9 8 7 6 5 5 5 5 6 6 6 7 8 9 9 10 11 11 11 11 11 11 11 11 11 12 13 14 14 13 12 10 8 6 4 3 2 2 3 3 3 4 6 7 8 8 7 7 8 9 10 12 14 17 19 21 24 26
15 15 15 16 16 16 15 15 14 13 12 11 9 8 7 6 6 6 7 8 8 8 8 8 7 7 8 8 9 9 9 9 10 10 11 11 13 14 15 15 14 13 12 10 8 6 4 3 3 4 5 6 7 9 9 9 9 9 10 11 14 18 21 24 27 29 30 31 33
15 16 17 19 19 20 20 19 18 17 15 14 13 11 10 9 9 10 10 11 10 9 8 7 7 6 6 7 7 7 8 9 9 10 11 11 12 14 15 15 15 15 14 13 12 10 9 8 8 8 8 9 10 11 12 14 16 18 21 24 28 31 33 34 34 34 33 32 31
17 18 19 20 21 21 21 21 21 20 19 18 17 15 15 14 13 13 13 12 11 10 9 8 7 7 7 7 7 8 8 8 9 10 10 11 12 13 13 14 14 14 13 13 12 11 10 10 11 11 13 15 17 20 23 26 30 33 36 38 38 36 35 33 31 29 26 23 20
21 21 20 19 19 20 21 21 21 21 21 20 20 20 19 19 18 17 16 15 13 11 10 9 9 8 8 9 9 9 9 9 10 10 11 11 11 12 12 12 11 11 11 10 11 12 14 16 19 23 27 31 34 37 39 41 42 41 38 35 32 29 26 23 20 17 14 11 8
23 21 18 17 17 18 20 21 21 22 23 23 23 23 23 23 22 21 18 16 14 13 12 11 11 11 11 11 11 11 12 12 12 13 13 13 12 12 12 12 13 14 15 17 21 25 29 34 38 41 43 44 43 42 39 36 32 28 24 20 17 14 11 9 7 5 3 2 1
21 19 17 17 18 20 21 22 23 23 24 25 25 25 25 25 23 22 19 17 16 15 15 15 15 15 15 16 16 17 17 18 18 19 19 19 20 20 22 24 27 30 33 36 40 43 45 45 44 41 37 33 28 23 19 15 12 10 8 6 4 3 2 1 1 0 -0 -0 0
19 18 18 20 22 23 24 24 24 24 24 24 25 25 25 25 24 23 22 20 20 19 20 20 20 21 21 22 23 25 26 28 29 30 31 32 34 36 39 41 43 44 44 44 42 38 34 29 24 19 15 11 8 6 4 3 3 2 2 1 1 1 1 1 1 1 1 1 2
21 21 22 24 25 25 25 24 24 23 23 23 24 25 25 25 25 25 24 24 24 24 24 25 27 28 29 30 32 33 35 37 39 39 39 40 41 41 40 38 36 33 29 26 21 16 12 8 6 4 3 3 3 2 2 2 2 2 1 1 2 2 2 2 3 3 4 5 5
23 24 24 24 24 23 23 23 23 23 23 24 24 25 25 26 25 25 26 27 27 28 28 29 31 32 33 33 34 34 34 34 33 32 30 28 26 24 21 17 14 11 9 7 5 4 3 3 3 3 2 2 2 2 2 2 2 2 2 2 3 4 4 5 6 6 7 8 8
22 22 21 21 20 20 20 21 21 22 22 22 23 23 23 24 24 24 25 26 27 27 27 27 26 25 24 23 22 20 18 16 15 13 11 9 8 7 6 5 4 3 3 3 3 3 3 2 2 2 1 1 1 1 2 2 2 3 4 4 5 6 7 7 8 8 9 9 9
17 17 16 16 16 16 16 17 17 17 18 18 18 18 18 18 19 19 19 19 19 18 17 15 13 11 10 8 7 6 5 4 4 3 3 3 3 3 3 3 3 3 2 2 2 2 1 1 1 2 2 2 3 3 4 4 5 5 6 6 7 7 7 7 7 7 7 7 7
Height
3088 3088 3088 3089 3089 3089 3089 3089 3089 3089 3089 3089 3089 3089 3089 3089 3089 3088 3088 3088 3088 3088 3088 3088 3088 3088 3087 3087 3087 3087 3087 3087 3087 3087 3086 3086 3085 3085 3084 3082 3081 3081 3081 3080 3080 3080 3080 3079 3079 3079 3080 3080 3079 3079 3079 3079 3078 3076 3076 3076 3077 3077 3076 3076 3076 3076 3076 3076 3076
3086 3086 3086 3087 3087 3087 3087 3087 3087 3087 3087 3087 3087 3087 3087 3087 3087 3086 3086 3086 3086 3086 3086 3086 3086 3086 3085 3085 3084 3084 3084 3085 3085 3085 3084 3084 3083 3083 3081 3080 3080 3079 3079 3079 3078 3078 3078 3077 3077 3077 3077 3077 3077 3076 3076 3075 3075 3074 3074 3074 3074 3074 3074 3074 3074 3074 3074 3073 3073
3084 3084 3084 3084 3085 3085 3085 3085 3085 3085 3085 3085 3085 3085 3085 3085 3085 3084 3084 3084 3084 3084 3084 3084 3084 3084 3083 3083 3082 3082 3082 3082 3083 3083 3083 3082 3082 3081 3079 3079 3078 3077 3077 3076 3076 3075 3075 3074 3074 3074 3074 3074 3074 3074 3073 3072 3072 3072 3072 3071 3070 3070 3071 3071 3071 3070 3070 3070 3070
3082 3082 3082 3082 3083 3083 3083 3083 3083 3083 3083 3083 3083 3083 3083 3083 3083 3082 3082 3082 3082 3082 3082 3081 3081 3081 3080 3080 3079 3079 3079 3079 3080 3081 3081 3080 3080 3079 3078 3077 3076 3075 3074 3074 3074 3073 3072 3072 3072 3071 3071 3071 3071 3071 3070 3070 3069 3069 3068 3067 3067 3067 3068 3068 3068 3068 3067 3067 3067
3079 3080 3080 3080 3080 3080 3081 3081 3081 3081 3081 3081 3081 3081 3081 3081 3080 3080 3080 3079 3079 3079 3079 3079 3079 3079 3078 3077 3077 3076 3076 3076 3077 3078 3078 3078 3077 3077 3076 3075 3074 3073 3072 3072 3071 3070 3069 3069 3069 3069 3069 3069 3068 3068 3067 3067 3066 3064 3064 3064 3064 3064 3064 3064 3064 3064 3064 3064 3064
3078 3078 3078 3078 3078 3078 3078 3079 3079 3079 3079 3079 3079 3079 3079 3078 3078 3078 3078 3077 3077 3077 3076 3076 3076 3076 3075 3075 3075 3074 3074 3073 3074 3075 3075 3075 3075 3074 3074 3073 3071 3070 3070 3069 3069 3068 3068 3067 3067 3067 3067 3066 3066 3065 3065 3064 3062 3061 3061 3062 3062 3062 3061 3061 3061 3061 3061 3061 3060
3075 3075 3076 3076 3076 3076 3076 3076 3076 3076 3076 3076 3077 3076 3076 3076 3076 3076 3075 3075 3075 3074 3074 3073 3073 3072 3072 3072 3073 3072 3072 3072 3071 3072 3072 3072 3072 3072 3071 3070 3069 3068 3068 3067 3066 3066 3065 3065 3064 3064 3064 3064 3063 3063 3062 3062 3060 3059 3059 3059 3059 3059 3059 3059 3059 3059 3058 3058 3057
3073 3073 3074 3074 3074 3074 3074 3074 3074 3074 3074 3074 3074 3074 3074 3074 3074 3074 3073 3073 3073 3072 3072 3071 3070 3069 3068 3069 3069 3070 3070 3070 3069 3069 3069 3069 3069 3068 3068 3067 3067 3066 3065 3064 3064 3064 3063 3063 3062 3061 3061 3061 3061 3060 3060 3060 3059 3059 3058 3057 3056 3056 3056 3056 3056 3056 3056 3055 3055
3071 3071 3071 3071 3071 3071 3072 3072 3072 3072 3072 3072 3072 3072 3071 3071 3071 3071 3071 3071 3070 3070 3070 3069 3067 3066 3065 3065 3066 3067 3068 3068 3067 3067 3066 3066 3065 3065 3064 3064 3064 3063 3062 3062 3061 3061 3060 3060 3060 3059 3059 3059 3059 3058 3058 3058 3057 3057 3056 3055 3054 3054 3054 3054 3053 3053 3053 3053 3053
3069 3069 3069 3069 3069 3069 3069 3069 3069 3069 3069 3069 3069 3069 3069 3069 3068 3068 3068 3068 3068 3068 3067 3066 3065 3063 3063 3063 3063 3064 3064 3064 3064 3064 3064 3063 3062 3062 3061 3061 3061 3060 3059 3059 3059 3058 3058 3057 3057 3057 3056 3056 3056 3056 3055 3055 3054 3054 3054 3053 3053 3053 3052 3051 3049 3049 3050 3050 3050
3066 3066 3066 3066 3067 3067 3067 3067 3067 3067 3067 3067 3066 3066 3066 3065 3065 3065 3065 3065 3065 3065 3064 3064 3062 3061 3061 3060 3060 3060 3061 3061 3061 3061 3060 3060 3059 3059 3058 3058 3058 3057 3057 3056 3056 3056 3055 3055 3054 3054 3054 3054 3053 3053 3053 3052 3051 3050 3049 3049 3050 3050 3050 3049 3047 3047 3047 3047 3048
3064 3064 3064 3064 3064 3064 3064 3064 3064 3064 3064 3064 3063 3063 3062 3062 3062 3062 3062 3062 3061 3061 3061 3060 3060 3059 3058 3058 3058 3058 3058 3058 3058 3058 3057 3057 3056 3056 3055 3055 3054 3054 3054 3054 3053 3053 3053 3052 3052 3051 3051 3050 3050 3050 3049 3049 3048 3047 3046 3045 3045 3046 3046 3046 3045 3044 3044 3044 3044
3061 3061 3062 3062 3062 3062 3062 3062 3061 3061 3060 3060 3060 3059 3059 3059 3059 3059 3059 3058 3058 3057 3057 3057 3057 3056 3055 3055 3055 3055 3055 3054 3054 3054 3054 3054 3053 3053 3053 3052 3052 3051 3051 3051 3051 3050 3050 3049 3049 3049 3048 3048 3047 3047 3046 3045 3045 3044 3044 3043 3042 3042 3042 3042 3042 3041 3041 3042 3042
3059 3059 3059 3059 3059 3059 3059 3059 3058 3058 3057 3057 3057 3057 3056 3056 3056 3056 3055 3054 3054 3054 3054 3054 3053 3053 3053 3052 3052 3052 3052 3052 3051 3051 3051 3051 3051 3050 3050 3050 3049 3049 3049 3048 3048 3048 3047 3047 3046 3046 3046 3045 3044 3044 3044 3043 3042 3042 3041 3041 3040 3040 3039 3039 3038 3038 3038 3039 3039
3057 3057 3057 3057 3056 3056 3056 3055 3055 3055 3054 3054 3054 3054 3054 3053 3053 3053 3052 3052 3051 3051 3051 3051 3050 3050 3050 3049 3049 3049 3049 3049 3048 3048 3048 3048 3048 3048 3047 3047 3047 3046 3046 3045 3044 3044 3044 3044 3044 3044 3043 3042 3042 3041 3041 3041 3040 3039 3039 3038 3038 3038 3037 3036 3036 3036 3036 3036 3037
3054 3054 3054 3054 3054 3053 3053 3053 3053 3052 3052 3052 3051 3051 3051 3051 3050 3050 3050 3049 3049 3049 3049 3048 3048 3048 3047 3047 3047 3046 3046 3046 3045 3045 3045 3045 3045 3045 3044 3044 3044 3043 3043 3042 3041 3040 3040 3041 3041 3041 3040 3040 3039 3039 3039 3038 3038 3037 3037 3036 3036 3035 3034 3034 3034 3034 3034 3034 3034
3052 3051 3051 3051 3051 3051 3051 3050 3050 3050 3050 3049 3049 3049 3049 3048 3048 3048 3047 3047 3047 3046 3046 3046 3045 3045 3045 3044 3044 3044 3044 3043 3043 3043 3043 3042 3042 3042 3042 3041 3040 3040 3039 3039 3038 3038 3038 3039 3039 3038 3038 3038 3037 3037 3037 3036 3036 3035 3034 3034 3034 3033 3032 3032 3032 3032 3032 3032 3031
3049 3049 3049 3049 3049 3049 3049 3048 3048 3048 3047 3047 3047 3047 3046 3046 3046 3045 3045 3045 3044 3044 3044 3043 3043 3043 3042 3042 3042 3041 3041 3041 3040 3040 3040 3039 3039 3039 3039 3038 3038 3037 3037 3036 3036 3036 3036 3036 3036 3036 3036 3035 3035 3035 3035 3034 3034 3034 3033 3032 3032 3031 3030 3030 3030 3030 3030 3029 3028
3047 3047 3047 3047 3047 3046 3046 3046 3046 3045 3045 3045 3045 3044 3044 3044 3044 3044 3043 3043 3042 3042 3041 3041 3041 3040 3040 3040 3039 3039 3039 3038 3038 3038 3037 3037 3036 3036 3035 3035 3034 3034 3034 3033 3034 3034 3034 3034 3034 3034 3034 3033 3033 3033 3033 3033 3032 3032 3031 3030 3029 3028 3028 3028 3028 3029 3029 3029 3027
3045 3045 3045 3044 3044 3044 3044 3044 3044 3044 3043 3043 3043 3042 3042 3042 3042 3042 3041 3041 3040 3039 3039 3039 3039 3038 3038 3038 3037 3037 3036 3036 3036 3035 3035 3034 3033 3032 3032 3031 3031 3031 3031 3031 3031 3032 3032 3032 3032 3032 3031 3032 3032 3032 3031 3031 3030 3029 3028 3028 3027 3027 3026 3026 3026 3026 3027 3027 3026
3043 3043 3043 3042 3042 3042 3042 3042 3042 3041 3041 3041 3041 3041 3040 3040 3040 3040 3039 3039 3038 3038 3037 3037 3036 3036 3036 3035 3035 3035 3034 3034 3034 3033 3032 3031 3030 3029 3028 3028 3028 3028 3028 3028 3029 3029 3030 3030 3030 3030 3030 3030 3030 3029 3029 3028 3027 3026 3025 3025 3025 3025 3025 3025 3025 3024 3024 3025 3025
3041 3041 3041 3040 3040 3040 3040 3040 3040 3040 3039 3039 3039 3039 3039 3039 3038 3038 3037 3037 3036 3036 3035 3035 3034 3034 3034 3034 3033 3033 3032 3032 3032 3031 3030 3029 3028 3027 3025 3025 3025 3025 3025 3025 3026 3027 3028 3028 3028 3028 3028 3028 3028 3027 3026 3025 3024 3023 3023 3024 3024 3024 3024 3024 3024 3023 3023 3022 3022
3039 3039 3039 3039 3038 3038 3038 3038 3038 3038 3038 3038 3038 3038 3037 3037 3036 3036 3035 3035 3034 3034 3034 3033 3033 3032 3032 3032 3031 3031 3031 3030 3030 3030 3029 3028 3026 3025 3024 3023 3023 3023 3023 3023 3023 3024 3025 3025 3026 3026 3026 3026 3025 3024 3023 3022 3022 3022 3022 3022 3023 3023 3023 3023 3022 3022 3021 3020 3020
3037 3037 3037 3037 3037 3036 3036 3037 3037 3037 3036 3036 3036 3036 3035 3035 3034 3034 3034 3033 3032 3032 3032 3031 3031 3031 3030 3030 3030 3029 3029 3029 3029 3028 3027 3026 3025 3024 3022 3021 3021 3020 3021 3021 3021 3022 3023 3024 3024 3024 3024 3023 3023 3021 3021 3020 3020 3021 3021 3021 3021 3020 3020 3020 3020 3020 3020 3019 3018
3036 3035 3035 3035 3035 3035 3035 3035 3035 3035 3035 3034 3034 3034 3033 3033 3033 3032 3031 3031 3030 3030 3029 3029 3029 3029 3029 3029 3028 3028 3028 3028 3027 3027 3026 3025 3024 3023 3022 3021 3020 3020 3020 3020 3021 3021 3022 3022 3022 3022 3021 3020 3019 3019 3019 3019 3019 3019 3019 3019 3019 3019 3019 3018 3018 3018 3018 3017 3017
3034 3034 3033 3033 3033 3033 3033 3033 3034 3033 3033 3033 3032 3032 3031 3031 3030 3030 3029 3029 3029 3028 3028 3028 3027 3027 3027 3027 3027 3026 3026 3026 3026 3025 3024 3024 3023 3023 3022 3021 3020 3019 3019 3019 3019 3020 3020 3020 3020 3020 3019 3019 3018 3017 3017 3017 3018 3018 3018 3018 3017 3017 3017 3017 3016 3016 3015 3015 3015
3032 3032 3031 3031 3031 3031 3032 3032 3032 3031 3031 3031 3030 3029 3029 3029 3028 3028 3027 3027 3027 3026 3026 3026 3025 3025 3025 3025 3025 3024 3024 3024 3024 3023 3023 3022 3022 3021 3021 3020 3020 3019 3019 3019 3019 3019 3019 3019 3019 3019 3018 3018 3017 3017 3017 3016 3016 3016 3016 3016 3015 3015 3015 3014 3014 3014 3013 3013 3013
3030 3030 3030 3030 3030 3030 3030 3030 3030 3029 3029 3028 3028 3027 3027 3027 3026 3026 3025 3025 3025 3024 3024 3024 3024 3023 3023 3023 3023 3023 3022 3022 3022 3022 3021 3021 3020 3020 3020 3019 3019 3019 3019 3019 3018 3018 3018 3017 3017 3017 3017 3016 3016 3016 3015 3015 3015 3014 3014 3014 3013 3013 3013 3012 3012 3011 3011 3011 3010
3029 3029 3029 3029 3029 3029 3028 3028 3028 3027 3027 3026 3026 3025 3025 3025 3024 3024 3024 3023 3023 3022 3022 3022 3022 3022 3021 3021 3021 3021 3021 3020 3020 3020 3020 3019 3019 3019 3019 3019 3018 3018 3018 3018 3018 3017 3017 3016 3016 3016 3015 3015 3014 3014 3014 3014 3013 3013 3012 3012 3011 3010 3010 3010 3009 3009 3009 3009 3008
3028 3028 3027 3027 3027 3027 3026 3026 3026 3025 3024 3024 3024 3024 3023 3023 3023 3022 3022 3021 3021 3021 3021 3020 3020 3020 3020 3020 3019 3019 3019 3019 3019 3019 3019 3018 3018 3018 3018 3017 3017 3017 3017 3017 3017 3016 3016 3015 3015 3014 3014 3014 3013 3013 3012 3012 3011 3011 3010 3009 3009 3009 3008 3008 3007 3007 3007 3006 3006
3027 3026 3026 3026 3025 3025 3024 3024 3024 3023 3023 3022 3022 3022 3021 3021 3021 3020 3020 3020 3019 3019 3019 3019 3019 3019 3019 3019 3018 3018 3018 3018 3018 3018 3017 3017 3017 3016 3016 3016 3016 3016 3016 3016 3016 3015 3015 3014 3014 3014 3013 3012 3012 3011 3011 3010 3009 3009 3008 3008 3007 3006 3006 3006 3005 3005 3005 3004 3004
3026 3025 3025 3024 3024 3023 3023 3022 3021 3021 3020 3020 3020 3019 3019 3019 3019 3019 3019 3019 3018 3018 3018 3018 3018 3017 3017 3017 3017 3017 3017 3017 3017 3016 3016 3016 3015 3015 3015 3015 3015 3014 3014 3014 3014 3014 3014 3013 3013 3012 3011 3010 3010 3009 3009 3008 3007 3007 3006 3005 3005 3004 3004 3004 3004 3004 3003 3003 3003
3024 3024 3023 3023 3022 3021 3021 3020 3019 3019 3019 3018 3018 3018 3018 3017 3017 3017 3017 3017 3017 3017 3017 3016 3016 3016 3016 3016 3016 3016 3016 3015 3015 3015 3015 3014 3014 3014 3014 3013 3013 3013 3013 3013 3012 3012 3012 3011 3011 3010 3009 3009 3008 3007 3006 3006 3005 3005 3004 3004 3004 3003 3003 3003 3003 3003 3003 3002 3002
3023 3022 3022 3021 3020 3020 3019 3019 3018 3017 3017 3016 3016 3016 3016 3016 3016 3016 3016 3016 3016 3016 3015 3015 3015 3015 3015 3015 3014 3014 3014 3014 3014 3014 3014 3013 3013 3013 3012 3012 3012 3011 3011 3011 3011 3010 3010 3009 3009 3008 3008 3007 3006 3006 3005 3004 3004 3004 3004 3003 3003 3003 3003 3003 3003 3002 3002 3002 3002
3021 3021 3020 3020 3019 3019 3018 3017 3017 3016 3016 3015 3015 3015 3015 3015 3015 3015 3015 3015 3015 3014 3014 3014 3014 3014 3014 3014 3013 3013 3013 3013 3013 3012 3012 3012 3012 3011 3011 3011 3010 3010 3010 3009 3009 3009 3009 3008 3008 3007 3007 3006 3005 3005 3005 3004 3004 3004 3004 3004 3003 3003 3003 3003 3003 3002 3002 3001 3001
3020 3020 3019 3019 3018 3018 3017 3016 3016 3015 3015 3014 3014 3014 3014 3014 3014 3014 3014 3014 3014 3014 3014 3014 3013 3013 3013 3013 3013 3012 3012 3012 3011 3011 3011 3011 3011 3010 3010 3010 3009 3009 3009 3009 3008 3008 3008 3007 3007 3007 3006 3006 3005 3005 3005 3005 3004 3004 3004 3004 3004 3003 3003 3003 3002 3002 3001 3001 3000
3019 3019 3019 3018 3017 3017 3016 3015 3015 3014 3014 3014 3014 3014 3014 3014 3014 3014 3014 3013 3013 3013 3013 3013 3013 3013 3012 3012 3012 3012 3011 3011 3011 3010 3010 3010 3010 3010 3009 3009 3009 3009 3009 3008 3008 3008 3008 3007 3007 3007 3006 3006 3006 3005 3005 3005 3004 3004 3004 3003 3003 3003 3002 3002 3001 3001 3000 3000 2999
3019 3019 3018 3018 3017 3016 3015 3015 3014 3014 3014 3014 3014 3013 3013 3013 3013 3013 3013 3013 3013 3013 3013 3013 3012 3012 3012 3012 3012 3011 3011 3011 3010 3010 3010 3010 3010 3010 3009 3009 3009 3009 3009 3009 3009 3008 3008 3008 3007 3007 3007 3006 3006 3005 3005 3004 3004 3003 3003 3002 3002 3002 3001 3001 3000 3000 2999 2999 2998
3019 3018 3018 3017 3017 3016 3015 3015 3014 3014 3014 3014 3014 3014 3013 3013 3013 3013 3013 3013 3013 3013 3013 3013 3013 3012 3012 3012 3012 3011 3011 3011 3011 3011 3010 3010 3010 3010 3010 3010 3010 3009 3009 3009 3009 3009 3008 3008 3008 3007 3007 3006 3005 3005 3004 3004 3003 3002 3002 3001 3001 3001 3000 3000 2999 2999 2999 2998 2997
3019 3018 3018 3017 3017 3016 3016 3015 3015 3014 3014 3014 3014 3014 3014 3014 3014 3014 3014 3014 3014 3014 3013 3013 3013 3013 3013 3013 3013 3012 3012 3012 3012 3011 3011 3011 3011 3011 3011 3010 3010 3010 3010 3009 3009 3009 3009 3008 3008 3007 3006 3006 3005 3004 3004 3003 3002 3002 3001 3001 3000 3000 2999 2999 2999 2998 2997 2997 2996
3019 3019 3018 3018 3017 3017 3016 3016 3016 3015 3015 3015 3014 3014 3014 3014 3014 3014 3014 3014 3014 3014 3014 3014 3014 3014 3014 3014 3014 3013 3013 3013 3013 3013 3012 3012 3012 3012 3012 3011 3011 3011 3010 3010 3009 3009 3009 3008 3007 3007 3006 3005 3004 3004 3003 3002 3001 3001 3000 3000 2999 2999 2998 2998 2997 2996 2996 2995 2994